Theta_e
292 293 294 295 298 300 303 308 314 317 321 321 323 324 323 324 322 319 318 320 317 314 310 311 308 307 305 305 305 304 302 301 300 295 295 295 294 289 287 287 285 283 283
293 294 295 297 299 302 306 312 312 318 318 316 316 319 321 321 321 319 316 313 313 310 305 306 305 303 304 303 302 301 300 298 298 298 295 291 289 288 287 284 283 283 283
295 295 296 298 302 305 310 312 313 317 318 318 318 319 317 319 317 314 312 312 308 306 306 303 302 302 302 300 299 299 297 292 293 295 292 289 288 286 284 283 282 283 283
296 297 298 300 302 306 309 313 314 315 316 316 312 313 312 314 312 311 309 307 305 303 303 303 301 300 300 298 298 294 292 293 292 291 290 288 285 283 283 282 282 283 282
296 298 300 300 302 304 306 309 310 310 310 310 307 306 305 307 306 306 304 303 302 300 298 299 298 298 298 298 296 294 293 292 291 287 285 284 283 283 282 282 282 282 281
293 295 296 299 301 303 303 301 303 306 306 304 302 302 301 301 301 301 301 300 298 297 297 296 296 295 294 292 291 290 290 288 286 285 284 284 283 283 282 281 281 281 282
290 292 295 297 299 299 300 300 301 300 300 299 298 298 298 296 297 297 297 297 296 296 296 295 293 291 290 290 291 287 285 284 283 283 284 283 283 281 281 280 280 280 280
291 291 292 295 296 297 299 299 297 297 298 297 297 297 296 295 297 297 297 297 296 295 294 293 291 290 290 288 285 284 283 283 283 283 283 282 281 280 280 280 279 279 280
289 290 291 292 292 295 294 294 295 295 295 295 294 295 295 294 295 296 296 294 293 292 290 288 288 288 285 284 283 283 283 283 282 282 281 281 281 280 280 279 279 279 278
287 289 290 292 293 294 294 294 294 295 295 294 293 293 293 292 293 295 295 293 289 287 287 287 285 283 283 282 283 283 282 282 281 281 280 280 280 280 280 279 278 277 276
289 290 292 292 294 294 294 294 294 294 293 292 292 291 292 289 286 286 286 287 288 289 289 286 283 282 282 282 282 282 282 281 281 280 280 279 279 279 278 277 277 276 276
291 292 292 292 292 293 293 293 293 293 293 292 288 285 285 285 285 285 286 287 288 288 286 283 282 282 282 282 281 281 281 280 280 280 279 279 278 278 278 277 277 276 276
293 293 293 293 293 292 293 293 293 292 289 287 286 285 286 285 286 286 287 287 286 284 283 282 282 282 282 281 280 280 280 280 279 279 279 279 278 278 277 277 276 275 275
293 293 293 293 293 293 293 291 286 286 287 287 287 287 287 286 287 287 288 287 285 282 282 282 281 281 280 280 280 280 279 279 279 279 279 278 278 277 276 276 276 275 275
289 289 289 288 287 287 286 285 286 286 286 287 286 286 286 287 287 287 285 284 282 281 281 281 281 281 280 280 280 279 279 279 279 278 278 277 276 276 276 275 275 274 274
288 287 287 287 287 286 286 286 286 286 286 286 286 287 288 288 287 285 283 282 282 281 281 281 281 280 280 279 279 279 279 279 278 277 276 276 276 275 275 275 274 274 273
290 289 288 288 287 287 287 286 287 287 287 287 288 289 289 288 287 286 285 282 281 280 280 280 280 280 279 279 279 278 278 277 276 276 275 275 275 274 274 274 273 273 272
291 292 292 290 289 288 287 286 286 286 287 287 287 288 288 288 287 286 285 284 281 281 280 280 280 279 279 278 278 277 276 276 276 275 275 275 274 274 273 273 272 271 271
292 291 291 292 292 291 290 289 287 286 286 286 286 286 287 286 286 287 286 285 283 281 280 279 279 278 278 277 277 276 276 276 275 275 275 274 273 272 272 272 271 271 271
292 292 291 291 291 291 291 290 289 286 285 285 285 285 285 285 285 285 285 284 284 284 282 280 278 277 277 276 276 276 275 275 275 274 274 273 272 272 271 271 271 271 271
289 289 290 289 290 290 289 289 289 289 288 287 286 285 284 284 284 284 283 283 283 283 283 282 281 279 277 276 275 275 274 274 274 274 273 272 272 271 271 271 271 271 271
291 289 289 291 290 288 287 286 287 288 288 289 288 287 285 283 284 283 283 283 283 282 282 281 281 280 279 277 275 274 274 273 273 272 272 271 271 271 271 271 271 271 270
292 292 291 290 288 287 286 286 287 287 288 289 288 288 287 285 284 284 283 283 282 282 281 281 280 280 279 278 276 274 273 273 272 271 271 270 271 272 271 271 270 270 269
292 292 290 289 288 288 288 288 288 287 287 287 286 286 285 285 284 283 282 282 282 281 281 280 279 279 278 277 275 273 272 271 271 270 270 271 271 271 271 270 270 269 269
293 292 291 290 289 289 288 288 288 287 287 286 285 285 284 283 283 283 282 281 281 280 279 279 278 277 276 274 273 272 271 271 271 272 272 271 271 270 270 270 269 269 268
293 292 292 290 289 288 288 287 287 286 286 286 285 284 283 283 282 281 281 281 280 280 279 278 277 276 275 273 272 272 272 272 271 271 270 270 270 270 270 269 269 268 268
Wind_Speed
25 23 24 22 22 23 24 21 22 27 27 48 28 34 37 43 44 49 48 51 50 51 53 52 44 38 35 29 25 26 23 18 20 23 22 19 22 19 17 15 13 11 11
16 16 16 16 17 21 20 19 24 25 28 31 27 27 39 42 39 40 41 44 42 43 39 34 32 31 28 28 27 21 20 20 20 21 22 22 21 19 16 14 12 12 12
7 10 14 14 13 16 18 22 24 19 20 25 19 24 23 29 28 32 34 35 32 31 35 32 32 32 33 28 25 26 22 19 16 16 22 22 20 18 14 12 13 12 11
2 6 8 10 11 14 19 22 19 16 18 16 16 16 23 24 22 27 28 28 27 25 26 30 34 30 28 31 28 24 23 19 17 18 18 20 18 15 13 12 11 12 12
4 5 7 10 14 17 18 20 22 19 18 17 20 21 22 19 23 24 25 29 33 39 38 34 30 29 28 26 24 21 17 18 19 19 18 18 15 13 11 11 11 10 12
14 16 17 18 21 22 22 24 25 23 21 20 20 23 25 24 26 27 31 37 40 38 36 35 34 32 29 23 18 18 16 16 17 17 16 14 11 11 11 9 10 10 13
18 21 22 23 25 25 26 26 28 27 25 24 25 25 28 30 30 36 37 37 36 35 34 33 31 26 23 22 22 21 18 17 13 11 11 10 10 9 8 8 10 13 15
21 24 27 28 30 30 30 30 30 31 31 31 31 32 36 34 30 30 30 32 33 32 30 27 25 25 23 19 18 17 15 14 12 11 10 9 7 6 8 9 12 15 17
26 25 25 28 33 32 35 36 36 39 40 38 38 37 35 34 30 31 33 34 32 29 25 24 22 20 18 16 15 14 13 13 11 9 7 5 6 7 9 11 14 18 21
26 27 28 30 34 37 37 38 39 37 38 37 38 37 36 35 30 26 25 25 26 25 23 20 17 15 14 13 13 13 12 10 8 5 4 5 6 8 12 13 15 18 20
24 27 30 32 33 33 34 33 34 37 38 37 36 33 32 28 24 20 18 17 16 17 16 15 14 13 12 13 13 11 8 6 5 4 5 6 8 11 13 14 16 18 20
23 25 27 28 30 31 33 34 33 33 33 33 30 28 24 22 19 17 14 11 10 7 11 13 15 14 12 9 8 7 6 5 5 6 7 9 10 12 15 17 19 20 21
21 23 23 23 25 26 27 27 27 25 26 25 23 23 22 19 17 15 12 11 10 8 9 10 9 8 8 8 9 8 7 8 8 9 10 11 13 15 17 18 20 22 22
21 21 20 20 21 21 22 22 21 19 19 18 16 15 14 13 10 8 7 7 8 9 10 10 9 9 9 9 9 9 9 10 12 13 14 14 16 17 18 20 23 25 27
16 17 17 17 17 17 17 16 14 13 11 9 8 7 6 6 5 5 5 5 6 6 7 9 9 10 11 11 12 12 14 15 15 16 16 17 18 19 20 22 25 26 28
9 10 11 10 11 10 10 10 11 10 9 7 6 5 3 1 2 3 5 6 7 9 11 12 13 14 14 14 15 16 17 17 17 18 18 19 20 21 22 24 26 27 29
6 5 5 5 5 4 4 3 2 4 3 2 2 2 3 4 6 7 8 10 12 14 16 16 16 16 17 18 18 19 19 19 19 20 20 21 22 24 25 26 25 27 29
2 2 2 2 3 2 3 3 4 4 5 6 7 7 8 9 10 12 13 14 16 18 18 19 19 20 20 21 21 21 21 21 22 22 23 24 25 26 26 27 26 27 29
5 3 2 2 4 5 6 7 8 9 9 10 10 11 12 13 14 15 15 15 16 18 19 21 22 23 23 23 23 23 24 25 26 26 26 26 26 26 28 28 28 28 31
9 8 7 6 7 8 9 10 11 12 14 14 14 13 15 17 18 17 18 20 20 19 20 22 22 24 27 27 27 27 28 28 28 28 28 27 27 27 28 29 28 31 32
11 11 11 10 11 11 12 14 14 16 16 17 17 17 18 20 21 23 24 25 26 26 25 25 26 28 29 30 30 30 30 30 30 29 29 28 28 28 28 29 31 32 30
14 14 13 12 15 15 16 18 19 20 21 21 21 21 21 25 26 26 27 28 28 28 28 28 30 30 30 30 31 31 32 32 31 30 30 29 28 28 30 31 31 30 28
15 16 16 16 18 18 19 20 21 21 22 24 24 25 25 26 28 30 29 29 29 30 30 32 32 32 32 31 30 31 32 32 30 29 29 29 30 32 30 30 29 28 27
18 18 19 20 21 21 21 22 22 23 23 23 23 24 26 28 29 30 30 31 32 31 31 31 32 31 31 30 30 31 31 30 29 29 30 34 32 29 29 28 27 26 24
21 21 21 23 23 23 23 23 24 24 25 25 25 26 27 29 31 31 31 31 31 31 31 31 31 30 29 29 29 29 29 29 33 33 31 29 29 28 27 26 25 23 21
23 23 23 24 24 25 25 25 26 26 27 27 28 29 30 31 32 32 32 33 34 34 33 32 31 31 30 29 29 31 32 32 30 27 26 27 26 25 24 24 22 22 21
Wind_Direction
267 261 256 250 250 251 247 239 242 224 216 218 212 225 225 218 225 220 222 221 224 225 220 220 214 213 205 196 192 188 199 227 199 184 187 187 203 209 217 232 248 260 274
260 246 242 238 246 247 226 228 227 222 224 239 237 228 217 216 222 223 226 218 219 218 206 206 204 196 193 186 184 196 176 157 154 160 180 192 195 206 218 232 249 259 270
237 226 233 234 237 229 214 210 206 209 197 206 212 224 239 226 222 226 222 219 209 207 204 195 181 179 170 177 175 162 150 152 163 175 184 186 197 207 217 235 249 266 281
293 226 223 232 217 193 189 185 182 183 181 185 183 193 201 202 215 213 210 206 194 184 181 180 172 171 172 160 154 151 157 161 176 183 184 190 198 203 219 237 256 273 287
108 145 155 160 160 157 156 150 149 147 147 151 158 162 168 172 185 193 189 182 175 165 160 158 158 157 155 151 150 151 161 177 183 185 185 187 198 209 225 243 258 281 301
102 116 126 131 137 133 134 131 133 132 130 136 141 149 152 157 168 173 173 164 155 153 149 146 145 143 137 137 145 168 181 186 183 182 186 192 200 218 235 255 280 305 322
94 107 116 123 120 121 120 123 123 123 124 127 132 138 140 146 158 154 152 148 146 144 144 142 137 134 141 157 169 180 175 173 175 181 192 198 209 226 249 278 304 317 323
86 99 110 116 115 119 120 118 120 120 120 122 124 126 127 131 138 141 141 140 139 136 135 133 136 151 167 171 168 169 167 168 176 186 194 210 220 248 275 298 312 315 320
85 94 103 111 114 115 112 114 116 118 118 120 123 126 128 133 139 140 139 135 132 131 137 149 158 158 158 162 165 163 165 174 182 194 205 231 260 282 297 308 315 320 319
86 95 104 109 111 112 115 118 121 121 121 125 127 128 130 129 130 129 130 128 136 142 144 148 157 159 156 158 165 170 179 180 186 198 222 257 283 297 302 310 313 313 316
95 102 106 108 110 114 117 120 122 122 124 124 123 123 123 121 120 126 134 134 141 148 152 156 157 160 169 177 182 185 188 196 211 237 255 277 292 297 300 305 307 312 318
92 98 103 108 113 118 121 123 124 128 129 126 125 120 119 123 130 135 136 138 144 157 159 163 172 184 185 186 195 207 212 229 248 257 272 282 291 301 305 306 308 311 313
90 95 100 107 112 116 117 117 117 117 117 120 126 131 133 141 146 149 155 162 167 176 172 178 186 197 204 209 213 223 237 247 257 270 276 288 297 298 299 303 304 305 309
87 91 96 101 105 108 109 109 113 118 121 127 132 133 138 149 153 158 172 185 192 198 196 203 209 215 219 226 238 245 253 263 272 281 289 290 290 293 298 301 302 308 310
92 99 105 108 110 112 114 113 112 114 114 115 122 128 136 149 159 176 202 220 222 216 220 228 235 243 245 247 250 255 262 269 277 282 287 290 293 296 303 304 306 308 309
78 90 96 100 103 107 113 122 129 134 140 140 139 135 125 152 246 273 277 270 258 248 245 244 246 249 252 257 262 265 270 276 280 283 289 294 299 301 303 302 303 306 308
76 88 102 106 106 106 119 127 141 157 175 195 218 242 257 271 270 273 275 268 259 252 252 254 258 263 265 266 268 270 273 277 281 288 293 298 300 302 302 302 303 304 308
110 99 127 167 184 196 212 222 230 238 246 254 254 264 272 273 271 269 266 264 262 265 264 265 266 270 270 269 271 274 279 282 288 292 294 297 299 299 300 303 304 306 308
224 230 249 258 258 261 267 269 267 267 266 264 264 264 266 270 273 275 275 274 274 271 271 268 270 270 271 272 274 276 280 283 285 288 292 294 297 299 301 303 304 304 307
243 249 258 267 273 274 273 272 274 275 275 276 275 278 278 279 278 280 279 282 285 286 285 282 278 275 275 275 275 275 276 278 281 285 289 291 294 295 299 302 302 303 306
250 253 259 266 273 280 283 283 280 277 278 280 283 283 282 279 281 281 281 282 285 288 290 287 285 282 278 276 276 276 277 278 280 283 285 289 292 295 299 298 298 302 304
251 254 256 273 283 281 283 280 277 275 276 278 281 282 282 283 285 283 284 285 288 289 288 288 286 285 285 282 279 277 277 279 281 284 287 288 291 294 295 297 299 300 301
261 265 266 270 277 278 279 280 280 280 280 277 277 278 280 281 284 288 287 287 288 288 288 287 287 286 286 285 281 278 278 280 283 283 286 288 288 292 296 296 296 297 299
266 270 270 272 274 277 280 282 285 287 288 289 288 285 285 288 289 288 289 291 291 289 288 287 286 286 286 284 281 278 278 280 281 282 282 286 292 293 292 292 293 295 297
268 271 273 278 280 281 284 287 290 292 294 295 294 293 293 292 292 293 293 292 290 289 289 287 285 284 283 282 280 278 278 278 276 283 289 287 287 289 289 288 291 294 295
267 273 279 281 283 285 288 292 295 296 297 295 294 294 295 294 294 294 294 292 291 289 288 286 283 281 279 276 274 273 276 283 287 284 282 284 285 286 286 289 291 292 295